Regional Weather Roundup
Issued by NWS

Home | Current Version | Previous Version | Graphics & Text | Print | Product List | Glossary On
Versions: 1 2 3 4 5 6 7 8 9 10 11 12 13 14 15 16 17 18 19 20 21 22 23 24 25 26 27 28 29 30 31 32 33 34 35 36 37 38 39 40 41 42 43 44 45 46 47 48 49 50
000
ASUS43 KLSX 191107
RWRMO

WEATHER SUMMARY FOR MISSOURI
NATIONAL WEATHER SERVICE SPRINGFIELD MO
500 AM CST SUN NOV 19 2017

NOTE: "FAIR" INDICATES FEW OR NO CLOUDS BELOW 12,000 FEET WITH NO
       SIGNIFICANT WEATHER AND/OR OBSTRUCTIONS TO VISIBILITY.
       CURRENT SKY AND/OR WEATHER CONDITIONS ARE NOT AVAILABLE FOR
       CHILLICOTHE AND FARMINGTON.

MOZ001>031-035>038-043-044-053-054-191200-
...NORTHERN AND WESTERN MISSOURI...

CITY           SKY/WX    TMP DP  RH WIND       PRES   REMARKS
KANSAS CTY INT CLEAR     29  24  82 NW7       30.25R WCI  22
KANSAS C DTWN  CLEAR     34  24  67 NW6       30.26R WCI  29
LEE`S SUMMIT   CLEAR     31  24  75 NW10      30.25R WCI  22
ST JOSEPH      CLEAR     25  19  78 CALM      30.27R
CHILLICOTHE      N/A     30  19  63 NW7       30.24R WCI  23
KIRKSVILLE     CLEAR     28  21  75 NW9       30.17R WCI  19

$$
MOZ066>068-077>081-088>096-101>105-191200-
...SOUTHWEST MISSOURI...

CITY           SKY/WX    TMP DP  RH WIND       PRES   REMARKS
SPRINGFIELD    CLEAR     30  27  88 NW6       30.21R WCI  24
JOPLIN         CLEAR     33  29  85 NW3       30.27R
BRANSON        CLEAR     36  27  69 NW8       30.23R WCI  29

$$
MOZ032>034-039>042-045>050-055>058-069>072-191200-
...CENTRAL MISSOURI...

CITY           SKY/WX    TMP DP  RH WIND       PRES   REMARKS
COLUMBIA       CLEAR     31  21  66 NW10      30.18R WCI  22
JEFFERSON CITY CLEAR     33  22  63 NW7       30.20R WCI  27
ROLLA          CLEAR     30  23  75 W9        30.16R WCI  22
SEDALIA        CLEAR     32  25  75 NW9       30.22R WCI  24
WHITEMAN AFB   CLEAR     32  22  68 NW9       30.18S WCI  24
WARRENSBURG    CLEAR     32  23  69 W6        30.24R WCI  26
OSAGE BEACH    CLEAR     34  21  59 NW5G16    30.21R WCI  30

$$
MOZ051-052-059>065-191200-
...EAST CENTRAL MISSOURI...

CITY           SKY/WX    TMP DP  RH WIND       PRES   REMARKS
ST LOUIS INTL  PTCLDY    32  22  66 NW12      30.13R WCI  23
SPIRIT OF STL  CLEAR     32  22  66 W8        30.14R WCI  25
ST CHARLES     CLEAR     33  21  61 NW15G22   30.13R WCI  23

$$
MOZ072>076-082>087-097>100-106>115-191200-
...SOUTH CENTRAL AND SOUTHEAST MISSOURI...

CITY           SKY/WX    TMP DP  RH WIND       PRES   REMARKS
CAPE GIRARDEAU CLEAR     34  25  69 NW6       30.13R WCI  29
FARMINGTON     CLEAR     33  24  69 NW9G16    30.13R WCI  25
POPLAR BLUFF   CLEAR     38  26  62 NW7       30.15R
WEST PLAINS    CLEAR     34  21  59 NW7       30.18R WCI  28

$$


USA.gov is the U.S. government's official web portal to all federal, state and local government web resources and services.